Location: Kimberly
(42.5380°N, 114.3640°W)
Time: 16:18:01
(UTC-06:00)

Envisat - Visible Passes

Search period start: 05 October 2024 00:00
Search period end: 15 October 2024 00:00
Orbit: 762 x 764 km, 98.3° (Epoch: 05 October)

Date Brightness Start Highest point End Pass type
(mag) Time Alt. Az. Time Alt. Az. Time Alt. Az.
05 Oct 5.3 03:54:58 10° NE 03:57:02 20° ENE 03:57:02 20° ENE visible
05 Oct 3.8 05:33:36 10° N 05:37:10 34° NW 05:37:10 34° NW visible
06 Oct 3.9 04:55:50 10° NNE 04:59:08 41° N 04:59:08 41° N visible
06 Oct 4.9 06:37:32 10° NW 06:39:02 11° WNW 06:39:16 11° WNW visible
07 Oct 4.8 04:18:32 10° NNE 04:21:04 27° NE 04:21:04 27° NE visible
07 Oct 4.3 05:58:05 10° NNW 06:01:12 22° NW 06:01:12 22° NW visible
08 Oct 5.7 03:41:57 10° NE 03:43:01 14° NE 03:43:01 14° NE visible
08 Oct 3.9 05:19:58 10° N 05:23:10 35° NNW 05:23:10 35° NNW visible
09 Oct 4.4 04:42:22 10° NNE 04:45:07 33° NNE 04:45:07 33° NNE visible
09 Oct 4.7 06:23:00 10° NNW 06:25:15 15° NW 06:25:15 15° NW visible
10 Oct 5.3 04:05:16 10° NNE 04:07:03 20° NE 04:07:03 20° NE visible
10 Oct 4.2 05:44:18 10° N 05:47:11 26° NW 05:47:11 26° NW visible
11 Oct 4.2 05:06:23 10° N 05:09:08 32° N 05:09:08 32° N visible
12 Oct 4.9 04:28:56 10° NNE 04:31:04 25° NNE 04:31:04 25° NNE visible
12 Oct 4.6 06:08:56 10° NNW 06:11:12 18° NW 06:11:12 18° NW visible
13 Oct 5.7 03:52:04 10° NE 03:53:00 14° NE 03:53:00 14° NE visible
13 Oct 4.3 05:30:35 10° N 05:33:08 26° NNW 05:33:08 26° NNW visible
14 Oct 4.6 04:52:50 10° NNE 04:55:04 27° NNE 04:55:04 27° NNE visible
14 Oct 5.0 06:34:16 10° NW 06:35:12 11° NW 06:35:12 11° NW visible
